Burlington, WA

12:15 AM PDT on April 30, 2017 (GMT -0700)
Skagit Regional

Weather History for KBVS - November, 2012

Change the Weather History Date:

Monday, November 5, 2012

  Actual Average Record
Temperature  
Mean Temperature 50 °F -  
Max Temperature 57 °F 53 °F 66 °F (1980)
Min Temperature 44 °F 39 °F 27 °F (1961)
Degree Days  
Heating Degree Days 14    
Moisture  
Dew Point 49 °F    
Average Humidity 92    
Maximum Humidity 100    
Minimum Humidity 67    
Precipitation  
Precipitation 0.00 in - - ()
Sea Level Pressure  
Sea Level Pressure 30.33 in    
Wind  
Wind Speed 2 mph (NNW)    
Max Wind Speed 10 mph    
Max Gust Speed -    
Visibility 7 miles    
Events      
Averages and records for this station are not official NWS values.
T = Trace of Precipitation, MM = Missing Value Source: NWS Daily Summary

Daily Weather History Graph

Daily Weather History Graph

Search for Another Location

Airport or City:

Trip Planner

Search our weather history database for the weather conditions in past years. The results will help you decide how hot, cold, wet, or windy it might be!

Date:

Astronomy

Nov. 05, 2012 Rise Set
Actual Time 7:02 AM PST 4:42 PM PST
Civil Twilight 6:29 AM PST 5:16 PM PST
Nautical Twilight 5:52 AM PST 5:53 PM PST
Astronomical Twilight 5:15 AM PST 6:30 PM PST
Moon 10:27 PM PST (11/5) 12:25 PM PST (11/5)
Length of Visible Light 10h 46m
Length of Day
9h 40m
Waning Gibbous, 62% of the Moon is Illuminated
Nov 5
Waning Gibbous
Nov 6
Last Quarter
Nov 13
New
Nov 20
First Quarter
Nov 28
Full

Hourly Weather History & Observations

Time (PST) Temp. Windchill Dew Point Humidity Pressure Visibility Wind Dir Wind Speed Gust Speed Precip Events Conditions
12:15 AM 55.4 °F - 55.4 °F 100% 30.31 in 8.0 mi Calm Calm - 0.00 in   Overcast
12:35 AM 53.6 °F - 53.6 °F 100% 30.31 in 8.0 mi Calm Calm - 0.00 in   Overcast
12:55 AM 53.6 °F - 53.6 °F 100% 30.32 in 7.0 mi Calm Calm - 0.00 in   Overcast
1:15 AM 53.6 °F - 53.6 °F 100% 30.33 in 7.0 mi Calm Calm - 0.00 in   Overcast
1:55 AM 53.6 °F - 53.6 °F 100% 30.34 in 7.0 mi Calm Calm - 0.00 in   Overcast
2:35 AM 53.6 °F - 53.6 °F 100% 30.35 in 7.0 mi South 3.5 mph - 0.00 in   Overcast
2:55 AM 53.6 °F - 53.6 °F 100% 30.36 in 7.0 mi Calm Calm - 0.00 in   Mostly Cloudy
3:15 AM 51.8 °F - 51.8 °F 100% 30.36 in 6.0 mi SSW 4.6 mph - 0.00 in   Partly Cloudy
3:35 AM 51.8 °F - 51.8 °F 100% 30.36 in 7.0 mi SSW 5.8 mph - 0.00 in   Clear
3:55 AM 51.8 °F - 51.8 °F 100% 30.36 in 7.0 mi SSW 4.6 mph - 0.00 in   Clear
4:15 AM 51.8 °F - 51.8 °F 100% 30.37 in 7.0 mi Calm Calm - 0.00 in   Clear
4:55 AM 51.8 °F - 51.8 °F 100% 30.38 in 6.0 mi Calm Calm - 0.00 in   Clear
5:15 AM 50.0 °F - 50.0 °F 100% 30.38 in 5.0 mi Calm Calm - 0.00 in   Clear
5:35 AM 48.2 °F - 48.2 °F 100% 30.38 in 4.0 mi Calm Calm - 0.00 in   Clear
5:55 AM 48.2 °F - 48.2 °F 100% 30.37 in 5.0 mi Calm Calm - 0.00 in   Clear
6:15 AM 46.4 °F - 46.4 °F 100% 30.38 in 2.5 mi Calm Calm - 0.00 in   Clear
6:35 AM 46.4 °F - 46.4 °F 100% 30.38 in 2.5 mi Calm Calm - 0.00 in   Clear
6:55 AM 44.6 °F - 44.6 °F 100% 30.38 in 0.8 mi Calm Calm - 0.00 in   Unknown
7:15 AM 46.4 °F 44.3 °F 46.4 °F 100% 30.38 in 2.5 mi West 4.6 mph - 0.00 in   Clear
7:55 AM 46.4 °F 44.3 °F 46.4 °F 100% 30.38 in 5.0 mi West 4.6 mph - 0.00 in   Clear
8:15 AM 46.4 °F - 46.4 °F 100% 30.39 in 4.0 mi Calm Calm - 0.00 in   Clear
8:35 AM 48.2 °F - 48.2 °F 100% 30.39 in 5.0 mi East 4.6 mph - 0.00 in   Clear
8:55 AM 48.2 °F - 48.2 °F 100% 30.39 in 4.0 mi Calm Calm - 0.00 in   Clear
9:15 AM 50.0 °F - 50.0 °F 100% 30.39 in 4.0 mi Calm Calm - 0.00 in   Clear
9:35 AM 51.8 °F - 51.8 °F 100% 30.39 in 4.0 mi ESE 3.5 mph - 0.00 in   Clear
9:55 AM 51.8 °F - 51.8 °F 100% 30.40 in 5.0 mi SE 3.5 mph - 0.00 in   Clear
10:15 AM 53.6 °F - 51.8 °F 94% 30.39 in 5.0 mi SE 3.5 mph - 0.00 in   Clear
10:35 AM 53.6 °F - 51.8 °F 94% 30.40 in 5.0 mi Calm Calm - 0.00 in   Clear
10:55 AM 53.6 °F - 48.2 °F 82% 30.40 in 5.0 mi Calm Calm - 0.00 in   Clear
11:15 AM 55.4 °F - 50.0 °F 82% 30.40 in 5.0 mi Calm Calm - 0.00 in   Clear
11:35 AM 55.4 °F - 50.0 °F 82% 30.40 in 5.0 mi SSE 3.5 mph - 0.00 in   Clear
11:55 AM 55.4 °F - 50.0 °F 82% 30.40 in 5.0 mi SSW 5.8 mph - 0.00 in   Clear
12:35 PM 55.4 °F - 48.2 °F 77% 30.40 in 6.0 mi SSW 5.8 mph - 0.00 in   Clear
12:55 PM 55.4 °F - 48.2 °F 77% 30.39 in 6.0 mi Calm Calm - 0.00 in   Clear
1:15 PM 57.2 °F - 48.2 °F 72% 30.39 in 5.0 mi Calm Calm - 0.00 in   Clear
1:35 PM 55.4 °F - 50.0 °F 82% 30.38 in 7.0 mi South 5.8 mph - 0.00 in   Clear
1:55 PM 57.2 °F - 48.2 °F 72% 30.39 in 7.0 mi SSW 4.6 mph - 0.00 in   Clear
2:15 PM 57.2 °F - 46.4 °F 67% 30.37 in 7.0 mi South 3.5 mph - 0.00 in   Clear
2:35 PM 55.4 °F - 46.4 °F 72% 30.36 in 2.5 mi Calm Calm - 0.00 in   Clear
2:55 PM 55.4 °F - 46.4 °F 72% 30.36 in 7.0 mi Calm Calm - 0.00 in   Clear
3:15 PM 55.4 °F - 46.4 °F 72% 30.35 in 7.0 mi Calm Calm - 0.00 in   Clear
3:35 PM 53.6 °F - 48.2 °F 82% 30.36 in 7.0 mi Calm Calm - 0.00 in   Clear
3:55 PM 53.6 °F - 51.8 °F 94% 30.36 in 6.0 mi Calm Calm - 0.00 in   Clear
4:15 PM 53.6 °F - 46.4 °F 77% 30.35 in 7.0 mi NW 5.8 mph - 0.00 in   Clear
4:35 PM 51.8 °F - 48.2 °F 88% 30.34 in 7.0 mi NW 4.6 mph - 0.00 in   Clear
4:55 PM 50.0 °F - 48.2 °F 94% 30.34 in 7.0 mi NW 6.9 mph - 0.00 in   Clear
5:15 PM 50.0 °F - 48.2 °F 94% 30.32 in 9.0 mi NNW 8.1 mph - 0.00 in   Clear
5:55 PM 50.0 °F - 46.4 °F 87% 30.31 in 10.0 mi NNW 9.2 mph - 0.00 in   Clear
6:15 PM 50.0 °F - 46.4 °F 87% 30.32 in 10.0 mi NW 10.4 mph - 0.00 in   Clear
6:35 PM 50.0 °F - 46.4 °F 87% 30.30 in 10.0 mi NW 9.2 mph - 0.00 in   Clear
6:55 PM 50.0 °F - 46.4 °F 87% 30.30 in 10.0 mi NW 8.1 mph - 0.00 in   Clear
7:15 PM 50.0 °F - 46.4 °F 87% 30.28 in 10.0 mi North 6.9 mph - 0.00 in   Clear
7:35 PM 48.2 °F - 46.4 °F 93% 30.28 in 10.0 mi NNW 6.9 mph - 0.00 in   Mostly Cloudy
7:55 PM 50.0 °F - 46.4 °F 87% 30.27 in 10.0 mi NNW 6.9 mph - 0.00 in   Overcast
8:15 PM 48.2 °F - 48.2 °F 100% 30.25 in 9.0 mi NW 5.8 mph - 0.00 in   Mostly Cloudy
8:35 PM 48.2 °F - 46.4 °F 93% 30.24 in 10.0 mi NW 4.6 mph - 0.00 in   Clear
8:55 PM 48.2 °F - 48.2 °F 100% 30.23 in 9.0 mi NNE 5.8 mph - 0.00 in   Clear
9:15 PM 50.0 °F - 48.2 °F 94% 30.23 in 10.0 mi NNE 6.9 mph - 0.00 in   Scattered Clouds
9:35 PM 50.0 °F - 48.2 °F 94% 30.23 in 10.0 mi NE 5.8 mph - 0.00 in   Mostly Cloudy
9:55 PM 50.0 °F - 48.2 °F 94% 30.22 in 10.0 mi NE 6.9 mph - 0.00 in   Partly Cloudy
10:15 PM 48.2 °F - 48.2 °F 100% 30.22 in 10.0 mi NE 5.8 mph - 0.00 in   Clear
10:35 PM 48.2 °F - 48.2 °F 100% 30.22 in 10.0 mi NNE 6.9 mph - 0.00 in   Clear
10:55 PM 48.2 °F - 48.2 °F 100% 30.20 in 10.0 mi NE 4.6 mph - 0.00 in   Clear
11:15 PM 50.0 °F - 48.2 °F 94% 30.19 in 10.0 mi NE 6.9 mph - 0.00 in   Clear
11:35 PM 48.2 °F - 48.2 °F 100% 30.19 in 9.0 mi NE 3.5 mph - 0.00 in   Clear
11:55 PM 48.2 °F - 48.2 °F 100% 30.19 in 10.0 mi NNW 3.5 mph - 0.00 in   Clear